ORBCOMM FM108

Last updated on Wed Sep 23 2026 00:03:43 GMT+0000 (Coordinated Universal Time)

1 41187U 15081J 26264.91731059 .00000198 00000+0 77972-4 0 9994 2 41187 47.0041 84.8143 0002572 277.9516 82.1077 14.58983852574206
UTC large
Height (km)
Speed (km/s)
/
Latitude / Longitude
Inclination (degrees)
Orbital Period (minutes)
Azimuth
Elevation
Range (km)
Doppler Factor

Next 0 passes for location: London (51.5072 / 0.1276)

No passes found over London.
ORBCOMM FM108